Home   Weather   Stockholm   Past weeks
Flag for Sweden

Past Weather in Stockholm, Sweden — Yesterday and Last 2 Weeks

Now
37 °F

Partly sunny.


Feels Like: 29 °F
Forecast: 48 / 31 °F
Wind: 13 mph from Northwest

Location: Stockholm Bromma Airport

Current Time: Mar 26, 2019 at 1:30:06 pm

Latest Report: Mar 26, 2019 at 12:50 pm


Visibility: N/A

Pressure: 29.98 "Hg

Humidity: 75%

Dew Point: 30 °F

Location of StockholmLocation

Past Weather in Stockholm — Graph

°F

Stockholm Temperature Yesterday

Maximum temperature yesterday: 45 °F (at 1:50 pm)
Minimum temperature yesterday: 32 °F (at 3:50 am)
Average temperature yesterday: 38 °F

High & Low Weather Summary for the Past Weeks

 TemperatureHumidityPressure
High52 °F (Mar 23, 11:50 am)100% (Mar 13, 4:50 am)30.51 "Hg (Mar 13, 4:50 am)
Low18 °F (Mar 12, 5:20 am)28% (Mar 22, 1:50 pm)29.06 "Hg (Mar 15, 8:50 pm)
Average37 °F77%29.66 "Hg
* Reported Mar 11 12:20 pm — Mar 26 12:20 pm, Stockholm. Weather by CustomWeather, © 2019

Note: Actual official high and low records may vary slightly from our data, if they occured in-between our weather recording intervals... More about our weather records

Advertising

Stockholm Weather History for the Previous 24 Hours

Scroll right to see more
 ConditionsComfort  
Time TempWeatherWind HumidityBarometerVisibility
12:20 pm
Tue, Mar 26
39 °FPartly sunny.14 mph56%29.98 "HgN/A
11:50 am37 °FPartly sunny.14 mph65%29.95 "HgN/A
11:20 am37 °FPartly sunny.17 mph60%29.95 "HgN/A
10:50 am37 °FPartly sunny.16 mph60%29.92 "HgN/A
10:20 am37 °FPartly sunny.14 mph60%29.92 "HgN/A
9:50 am37 °FScattered clouds.13 mph65%29.89 "HgN/A
9:20 am36 °FBroken clouds.13 mph75%29.89 "HgN/A
8:50 am34 °FBroken clouds.13 mph81%29.86 "HgN/A
8:20 am34 °FPartly sunny.12 mph75%29.83 "HgN/A
7:50 am34 °FPartly sunny.9 mph70%29.80 "HgN/A
7:20 am36 °FScattered clouds.14 mph52%29.80 "HgN/A
6:50 am36 °FPartly sunny.14 mph52%29.77 "HgN/A
6:20 am36 °FSunny.9 mph52%29.74 "Hg10 mi
5:50 am36 °FMore clouds than sun.14 mph52%29.74 "HgN/A
5:20 am34 °FPassing clouds.10 mph56%29.74 "HgN/A
4:50 am34 °FPassing clouds.7 mph56%29.74 "HgN/A
4:20 am34 °FPassing clouds.8 mph60%29.74 "HgN/A
3:50 am36 °FPassing clouds.9 mph52%29.74 "HgN/A
3:20 am37 °FOvercast.12 mph52%29.74 "HgN/A
2:50 am37 °FOvercast.12 mph48%29.74 "HgN/A
2:20 am37 °FOvercast.10 mph52%29.74 "HgN/A
1:50 am37 °FOvercast.12 mph52%29.74 "HgN/A
1:20 am37 °FMostly cloudy.10 mph48%29.77 "HgN/A
12:50 am36 °FPassing clouds.10 mph56%29.77 "HgN/A
12:20 am36 °FPassing clouds.7 mph52%29.80 "HgN/A
11:50 pm
Mon, Mar 25
36 °FPassing clouds.7 mph56%29.80 "HgN/A
11:20 pm36 °FPassing clouds.6 mph56%29.83 "HgN/A
10:50 pm36 °FOvercast.7 mph56%29.83 "HgN/A
10:20 pm36 °FPassing clouds.7 mph56%29.86 "HgN/A
9:50 pm36 °FClear.7 mph56%29.86 "Hg10 mi
9:20 pm36 °FClear.6 mph56%29.89 "Hg10 mi
8:50 pm36 °FClear.3 mph52%29.89 "Hg10 mi
8:20 pm37 °FClear.5 mph52%29.89 "Hg10 mi
7:50 pm39 °FClear.8 mph45%29.89 "Hg10 mi
7:20 pm39 °FClear.6 mph45%29.89 "Hg10 mi
6:50 pm39 °FClear.6 mph42%29.89 "Hg10 mi
6:20 pm39 °FClear.6 mph39%29.89 "Hg10 mi
5:50 pm41 °FSunny.9 mph33%29.89 "Hg10 mi
5:20 pm43 °FPassing clouds.12 mph31%29.89 "HgN/A
4:50 pm43 °FSunny.13 mph31%29.89 "Hg10 mi
4:20 pm45 °FPassing clouds.12 mph31%29.89 "HgN/A
3:50 pm45 °FSunny.16 mph31%29.89 "Hg10 mi
3:20 pm45 °FSunny.14 mph34%29.89 "Hg10 mi
2:50 pm45 °FSunny.14 mph31%29.89 "Hg10 mi
2:20 pm45 °FPassing clouds.15 mph34%29.86 "HgN/A
1:50 pm45 °FSunny.15 mph34%29.86 "Hg10 mi
Weather by CustomWeather, © 2019

See weather overview